Weather History for Hollywood, FL

Change the Weather History Date:

Saturday, March 2, 2013

  Actual Average (KFLL) Record (KFLL)
Temperature  
Mean Temperature 62 °F 72 °F  
Max Temperature 68 °F 79 °F 90 °F (2003)
Min Temperature 54 °F 65 °F 32 °F (1920)
Degree Days  
Heating Degree Days 4 1  
Month to date heating degree days 2  
Since 1 July heating degree days 104  
Cooling Degree Days 0 7  
Month to date cooling degree days 14  
Year to date cooling degree days 370  
Growing Degree Days 12 (Base 50)    
Moisture  
Dew Point 40 °F    
Average Humidity 52    
Maximum Humidity 65    
Minimum Humidity 36    
Precipitation  
Precipitation 0.00 in 0.07 in 4.43 in (1931)
Month to date precipitation 0.14  
Year to date precipitation 6.73  
Snow  
Snow 0.00 in - - ()
Month to date snowfall  
Since 1 July snowfall  
Snow Depth -    
Sea Level Pressure  
Sea Level Pressure 30.02 in    
Wind  
Wind Speed 11 mph (NW)    
Max Wind Speed 23 mph    
Max Gust Speed 30 mph    
Visibility 10 miles    
Events      
T = Trace of Precipitation, MM = Missing Value Source: NWS Daily Summary

Daily Weather History Graph

Daily Weather History Graph

Search for Another Location

Airport:

Trip Planner

Search our weather history database for the weather conditions in past years. The results will help you decide how hot, cold, wet, or windy it might be!

Date:

Astronomy

Mar. 02, 2013 Rise Set
Actual Time 6:43 AM EST 6:23 PM EST
Civil Twilight 6:20 AM EST 6:46 PM EST
Nautical Twilight 5:53 AM EST 7:13 PM EST
Astronomical Twilight 5:26 AM EST 7:39 PM EST
Moon 11:24 PM EST 9:44 AM EST
Length of Visible Light 12h 26m
Length of Day
11h 40m
Waning Gibbous, 74% of the Moon is Illuminated
Mar 2
Waning Gibbous
Mar 4
Last Quarter
Mar 11
New
Mar 19
First Quarter
Mar 27
Full

Hourly Weather History & Observations

Time (EST) Temp. Dew Point Humidity Pressure Visibility Wind Dir Wind Speed Gust Speed Precip Events Conditions
12:53 AM 57.9 °F 46.0 °F 65% 30.00 in 10.0 mi WNW 8.1 mph - N/A   Overcast
1:53 AM 57.0 °F 43.0 °F 59% 30.00 in 10.0 mi NW 9.2 mph - N/A   Overcast
2:53 AM 55.9 °F 42.1 °F 60% 29.99 in 10.0 mi NW 13.8 mph - 0.00 in   Overcast
3:53 AM 55.9 °F 39.9 °F 55% 30.00 in 10.0 mi NW 13.8 mph - N/A   Overcast
4:53 AM 55.0 °F 39.9 °F 57% 30.00 in 10.0 mi NW 13.8 mph 23.0 mph N/A   Overcast
6:53 AM 55.0 °F 41.0 °F 59% 30.05 in 10.0 mi NW 9.2 mph - N/A   Overcast
7:53 AM 55.0 °F 42.1 °F 62% 30.05 in 10.0 mi North 17.3 mph - N/A   Overcast
8:53 AM 55.0 °F 39.9 °F 57% 30.06 in 10.0 mi North 15.0 mph 20.7 mph N/A   Overcast
9:53 AM 57.0 °F 39.9 °F 53% 30.06 in 10.0 mi North 6.9 mph - N/A   Mostly Cloudy
10:53 AM 57.0 °F 37.9 °F 49% 30.06 in 10.0 mi North 4.6 mph - N/A   Overcast
11:53 AM 61.0 °F 37.0 °F 41% 30.04 in 10.0 mi NW 12.7 mph - N/A   Overcast
12:53 PM 64.9 °F 39.0 °F 39% 30.01 in 10.0 mi NW 12.7 mph 23.0 mph N/A   Scattered Clouds
1:53 PM 68.0 °F 41.0 °F 37% 29.99 in 10.0 mi NW 19.6 mph 24.2 mph N/A   Clear
2:53 PM 66.0 °F 39.0 °F 37% 29.98 in 10.0 mi WNW 23.0 mph 29.9 mph N/A   Partly Cloudy
3:53 PM 66.0 °F 37.9 °F 36% 29.99 in 10.0 mi NW 19.6 mph 27.6 mph N/A   Clear
4:53 PM 63.0 °F 37.9 °F 40% 29.99 in 10.0 mi WNW 17.3 mph 23.0 mph N/A   Partly Cloudy
5:53 PM 60.1 °F 37.0 °F 42% 30.01 in 10.0 mi WNW 12.7 mph 21.9 mph N/A   Clear
6:53 PM 59.0 °F 39.0 °F 48% 30.03 in 10.0 mi WNW 8.1 mph - N/A   Clear
8:53 PM 55.0 °F 39.0 °F 55% 30.06 in 10.0 mi NW 4.6 mph - N/A   Clear
9:53 PM 55.0 °F 41.0 °F 59% 30.07 in 10.0 mi NW 4.6 mph - N/A   Clear
10:53 PM 55.0 °F 41.0 °F 59% 30.06 in 10.0 mi Calm Calm - N/A   Clear
11:53 PM 54.0 °F 42.1 °F 64% 30.04 in 10.0 mi WNW 3.5 mph - N/A   Clear